Volver al catálogo

COSMOS 1992

ActivoMilitarLEO
NORAD 19769·PAYLOAD·🇷🇺 Russia

Lanzado Jan 26, 1989 desde Plesetsk Cosmodrome

Loading…

Próximos Pases (próximas 24 horas)

TLE

ActualizadoSource: Space-Track

Época: Sep 13, 2026, 22:47 UTC

1 19769U 89005A   26256.94993497  .00000068  00000-0  32410-4 0  9997
2 19769  74.0441  85.6107 0023092 269.7033  90.1474 14.35861511969584

Sigue COSMOS 1992 en tiempo real con AllMySat

Download on the App Store